Location: Bremen
(53.0793°N, 8.8017°E)
Time: 21:11:50
(UTC+02:00)

Tiros 1 - All Passes

Search period start: 19 April 2024 00:00
Search period end: 29 April 2024 00:00
Orbit: 625 x 657 km, 48.4° (Epoch: 19 April)

Date Brightness Start Highest point End Pass type
(mag) Time Alt. Az. Time Alt. Az. Time Alt. Az.
19 Apr - 01:46:47 10° S 01:49:51 18° SE 01:52:56 10° ESE visible
19 Apr - 03:26:49 10° SW 03:31:07 39° SSE 03:35:25 10° E visible
19 Apr - 05:08:19 10° WSW 05:12:45 47° S 05:17:09 10° ESE visible
19 Apr - 06:50:19 10° W 06:54:14 28° SSW 06:58:09 10° SE daylight
20 Apr - 02:09:40 10° SSW 02:13:34 27° SSE 02:17:27 10° E visible
20 Apr - 03:50:38 10° WSW 03:55:03 46° S 03:59:27 10° ESE visible
20 Apr - 05:32:22 10° W 05:36:40 40° SSW 05:40:58 10° SE visible
20 Apr - 07:14:47 10° WSW 07:17:57 19° SSW 07:21:08 10° S daylight
21 Apr - 00:53:20 10° S 00:56:11 16° SE 00:59:01 10° ESE visible
21 Apr - 02:33:08 10° SW 02:37:24 37° SSE 02:41:39 10° E visible
21 Apr - 04:14:34 10° WSW 04:19:01 47° S 04:23:25 10° ESE visible
21 Apr - 05:56:31 10° W 06:00:32 30° SSW 06:04:32 10° SE daylight
21 Apr - 07:40:34 10° SW 07:41:32 11° SW 07:42:31 10° SSW daylight
22 Apr - 01:16:03 10° SSW 01:19:51 25° SSE 01:23:39 10° E visible
22 Apr - 02:56:53 10° WSW 03:01:18 45° S 03:05:43 10° E visible
22 Apr - 04:38:35 10° W 04:42:57 42° SSW 04:47:16 10° ESE visible
22 Apr - 06:20:54 10° W 06:24:16 20° SSW 06:27:38 10° SSE daylight
22 Apr - 23:59:56 10° S 00:02:29 15° SE 00:05:03 10° ESE night (unlit)
23 Apr - 01:39:25 10° SW 01:43:40 35° SSE 01:47:53 10° E visible
23 Apr - 03:20:48 10° WSW 03:25:15 48° S 03:29:41 10° ESE visible
23 Apr - 05:02:42 10° W 05:06:48 32° SSW 05:10:53 10° SE visible
23 Apr - 06:46:07 10° WSW 06:47:52 12° SW 06:49:36 10° SSW daylight
24 Apr - 00:22:26 10° SSW 00:26:08 24° SSE 00:29:48 10° E night (unlit)
24 Apr - 02:03:07 10° WSW 02:07:33 44° S 02:11:57 10° E visible
24 Apr - 03:44:48 10° W 03:49:11 43° S 03:53:32 10° ESE visible
24 Apr - 05:27:00 10° W 05:30:33 22° SSW 05:34:04 10° SSE visible
24 Apr - 23:06:34 10° S 23:08:47 13° SE 23:11:00 10° ESE night (unlit)
25 Apr - 00:45:43 10° SW 00:49:54 34° SSE 00:54:04 10° E visible
25 Apr - 02:27:00 10° WSW 02:31:28 48° S 02:35:55 10° ESE visible
25 Apr - 04:08:53 10° W 04:13:04 34° SSW 04:17:12 10° SE visible
25 Apr - 05:51:56 10° WSW 05:54:09 13° SW 05:56:23 10° S daylight
25 Apr - 23:28:49 10° SSW 23:32:23 22° SSE 23:35:56 10° E night (unlit)
26 Apr - 01:09:22 10° WSW 01:13:46 43° S 01:18:09 10° E visible
26 Apr - 02:50:59 10° W 02:55:24 45° S 02:59:48 10° ESE visible
26 Apr - 04:33:08 10° W 04:36:49 24° SSW 04:40:29 10° SSE visible
26 Apr - 22:13:19 10° SSE 22:15:04 12° SE 22:16:48 10° ESE visible
26 Apr - 23:51:59 10° SW 23:56:08 32° SSE 00:00:15 10° E night (unlit)
27 Apr - 01:33:12 10° WSW 01:37:41 48° S 01:42:08 10° ESE visible
27 Apr - 03:15:03 10° W 03:19:17 36° SSW 03:23:29 10° SE visible
27 Apr - 04:57:51 10° WSW 05:00:27 15° SW 05:03:02 10° S visible
27 Apr - 22:35:13 10° SSW 22:38:38 20° SSE 22:42:03 10° E visible
28 Apr - 00:15:34 10° WSW 00:19:58 41° SSE 00:24:20 10° E visible
28 Apr - 01:57:09 10° W 02:01:37 46° S 02:06:01 10° ESE visible
28 Apr - 03:39:14 10° W 03:43:04 26° SSW 03:46:51 10° SSE visible
28 Apr - 21:20:20 10° SSE 21:21:20 11° SE 21:22:21 10° SE daylight
28 Apr - 22:58:16 10° SW 23:02:21 30° SSE 23:06:24 10° E visible
